Terug naar catalogus

PEGASUS DEB

ActiefPO
NORAD 39922·DEBRIS·🇺🇸 United States

Gelanceerd May 19, 1994 vanaf Vandenberg Space Force Base

Loading…

Volgende Passages (komende 24 uur)

TLE

VerouderendSource: Space-Track

Epoch: Sep 10, 2026, 06:25 UTC

1 39922U 94029AFV 26253.26739611  .00007383  00000-0  60479-3 0  9992
2 39922  81.5812 243.1854 0105909  55.0290 306.0816 14.94784888657513

Volg PEGASUS DEB in realtime met AllMySat

Download on the App Store